Location: Unnamed
(51.6619°N, 39.1980°E)
Time: 08:21:07
(UTC+03:00)

ISS - Visible Passes

Search period start: 28 July 2021 00:00
Search period end: 07 August 2021 00:00
Orbit: 419 x 421 km, 51.6° (Epoch: 28 July)

Date Brightness Start Highest point End Pass type
(mag) Time Alt. Az. Time Alt. Az. Time Alt. Az.
28 Jul -2.2 21:51:20 10° W 21:54:06 24° SSW 21:55:43 17° S visible
29 Jul -2.6 21:03:54 10° W 21:06:58 32° SSW 21:10:02 10° SE visible
30 Jul -1.3 21:54:47 10° WSW 21:56:00 12° SW 21:57:13 10° SSW visible
31 Jul -1.5 21:06:46 10° W 21:09:01 17° SW 21:11:16 10° S visible
